EW1708 Weather Reports


Display with metric or nautical units.
time (UTC)temp
F
wind
direction
speed
MPH
gust
MPH
rain 1hr
in
rain 24hr
in
rain mn
in
humidity
%
barometer
mb
20260502161742 62 10 16.0 29.0 0.00 0.00 0.00 45 1010.5
20260502151447 57 321 19.0 29.0 0.00 0.00 0.00 51 1010.4
20260502150420 56 319 20.0 30.0 0.00 0.00 0.00 51 1010.5
20260502130108 51 0 10.0 15.0 0.00 0.00 0.00 62 1009.5
20260502122859 50 0 10.0 15.0 0.00 0.00 0.00 59 1009.3
20260502120654 50 297 9.0 14.0 0.00 0.00 0.00 58 1009.2
20260502115626 50 0 9.0 15.0 0.00 0.00 0.00 59 1009.2
20260502113457 50 0 9.0 14.0 0.00 0.00 0.00 58 1009.2
20260502111411 48 0 6.0 8.0 0.00 0.00 0.00 56 1008.8
20260502110352 48 0 6.0 10.0 0.00 0.00 0.00 55 1008.7
20260502105345 48 0 6.0 10.0 0.00 0.00 0.00 55 1008.9
20260502104330 48 0 4.0 8.0 0.00 0.00 0.00 55 1008.8
20260502103345 48 0 5.0 10.0 0.00 0.00 0.00 52 1008.7
20260502102401 49 0 6.0 10.0 0.00 0.00 0.00 53 1008.5
20260502100218 49 229 7.0 10.0 0.00 0.00 0.00 51 1008.8
20260502090126 49 0 2.0 6.0 0.00 0.00 0.00 48 1009.2
20260502070929 49 0 7.0 11.0 0.00 0.00 0.00 50 1010.0
20260502065922 47 0 6.0 9.0 0.00 0.00 0.00 53 1010.3
20260502064900 47 0 2.0 6.0 0.00 0.00 0.00 55 1010.4
20260502063902 47 0 3.0 7.0 0.00 0.00 0.00 54 1010.4
20260502062853 47 0 4.0 8.0 0.00 0.00 0.00 52 1010.5
20260502061854 48 0 6.0 8.0 0.00 0.00 0.00 51 1010.6
20260502060858 48 0 5.0 8.0 0.00 0.00 0.00 51 1010.7
20260502055837 48 0 8.0 11.0 0.00 0.00 0.00 51 1010.7
20260502054817 48 0 8.0 11.0 0.00 0.00 0.00 51 1010.4
20260502053816 47 195 8.0 11.0 0.00 0.00 0.00 52 1010.7
20260502052806 47 188 8.0 11.0 0.00 0.00 0.00 53 1010.7
20260502051829 46 0 7.0 11.0 0.00 0.00 0.00 53 1010.9
20260502050806 47 170 4.0 9.0 0.00 0.00 0.00 52 1011.0
20260502044714 47 195 5.0 11.0 0.00 0.00 0.00 51 1011.2
20260502043700 47 195 5.0 10.0 0.00 0.00 0.00 51 1011.5
20260502042656 48 0 7.0 10.0 0.00 0.00 0.00 50 1011.6
20260502041647 48 0 6.0 9.0 0.00 0.00 0.00 48 1011.7
20260502040619 49 0 3.0 7.0 0.00 0.00 0.00 48 1011.8
20260502035545 49 0 4.0 8.0 0.00 0.00 0.00 47 1011.9
20260502034512 50 0 3.0 11.0 0.00 0.00 0.00 46 1012.0
20260502033458 50 180 4.0 11.0 0.00 0.00 0.00 45 1012.2
20260502032427 50 173 3.0 6.0 0.00 0.00 0.00 45 1012.3
20260502031407 51 188 3.0 6.0 0.00 0.00 0.00 44 1012.3
20260502030336 51 169 3.0 6.0 0.00 0.00 0.00 43 1012.4
20260502025319 52 180 3.0 6.0 0.00 0.00 0.00 43 1012.5
20260502024316 52 189 3.0 6.0 0.00 0.00 0.00 42 1012.4
20260502023308 53 180 3.0 6.0 0.00 0.00 0.00 40 1012.6
20260502022306 54 182 3.0 6.0 0.00 0.00 0.00 38 1012.5
20260502021329 55 198 4.0 7.0 0.00 0.00 0.00 37 1012.5
20260502020349 57 200 4.0 7.0 0.00 0.00 0.00 36 1012.6
20260502015359 59 192 4.0 6.0 0.00 0.00 0.00 34 1012.6
20260502014408 61 0 5.0 6.0 0.00 0.00 0.00 29 1012.6
20260502013422 63 0 4.0 7.0 0.00 0.00 0.00 26 1012.7
20260502012354 65 219 7.0 12.0 0.00 0.00 0.00 23 1012.7
20260502011348 66 0 8.0 12.0 0.00 0.00 0.00 23 1012.7
20260502004152 68 252 8.0 14.0 0.00 0.00 0.00 21 1013.0
20260502003203 69 229 8.0 14.0 0.00 0.00 0.00 20 1013.1
20260502002225 69 246 7.0 14.0 0.00 0.00 0.00 20 1013.2
20260502001228 69 240 9.0 14.0 0.00 0.00 0.00 19 1013.3
20260502000200 69 227 7.0 12.0 0.00 0.00 0.00 18 1013.5
20260501235142 69 241 8.0 14.0 0.00 0.00 0.00 18 1013.5
20260501231939 70 265 6.0 15.0 0.00 0.00 0.00 18 1013.8
20260501225818 69 208 8.0 18.0 0.00 0.00 0.00 18 1014.0
20260501224802 69 258 9.0 18.0 0.00 0.00 0.00 19 1014.1
20260501223823 69 229 5.0 12.0 0.00 0.00 0.00 19 1014.2
20260501222749 69 263 9.0 16.0 0.00 0.00 0.00 19 1014.4
20260501221726 69 284 8.0 17.0 0.00 0.00 0.00 19 1014.5
20260501215600 69 229 8.0 17.0 0.00 0.00 0.00 20 1014.8
20260501214610 69 234 8.0 16.0 0.00 0.00 0.00 21 1014.9
20260501212357 69 268 9.0 17.0 0.00 0.00 0.00 21 1015.2
20260501211323 69 236 7.0 17.0 0.00 0.00 0.00 20 1015.3
20260501210252 68 206 9.0 22.0 0.00 0.00 0.00 22 1015.4
20260501204136 68 246 8.0 16.0 0.00 0.00 0.00 21 1015.6
20260501202002 70 217 1.0 13.0 0.00 0.00 0.00 21 1015.8
20260501200948 67 240 9.0 15.0 0.00 0.00 0.00 23 1015.9
20260501195933 68 263 6.0 15.0 0.00 0.00 0.00 23 1015.9
20260501194913 67 194 4.0 15.0 0.00 0.00 0.00 23 1016.1
20260501193854 66 234 7.0 15.0 0.00 0.00 0.00 24 1016.1
20260501190554 66 174 8.0 14.0 0.00 0.00 0.00 25 1016.3
20260501185542 66 258 8.0 14.0 0.00 0.00 0.00 24 1016.5
20260501184507 65 215 3.0 16.0 0.00 0.00 0.00 25 1016.5
20260501181159 64 238 9.0 16.0 0.00 0.00 0.00 25 1016.9
20260501180153 64 225 5.0 14.0 0.00 0.00 0.00 25 1016.9
20260501175144 64 287 7.0 14.0 0.00 0.00 0.00 26 1017.1
20260501173002 63 234 6.0 13.0 0.00 0.00 0.00 27 1017.4
20260501171928 63 257 4.0 9.0 0.00 0.00 0.00 27 1017.5
20260501170941 63 190 3.0 9.0 0.00 0.00 0.00 28 1017.6
20260501165922 61 311 3.0 10.0 0.00 0.00 0.00 30 1017.6
20260501164900 61 244 4.0 8.0 0.00 0.00 0.00 31 1017.7
20260501163839 59 263 5.0 9.0 0.00 0.00 0.00 32 1017.9
20260501162825 59 225 3.0 10.0 0.00 0.00 0.00 33 1017.9